| time (UTC) | temp C | wind direction | speed KPH | gust KPH | rain 1hr cm | rain 24hr cm | rain mn cm | humidity % | barometer mb |
| 20260503211617 | 15 | 39 | 0.0 | 3.2 | 0.00 | 0.03 | 0.03 | 97 | |
| 20260503210117 | 14 | 52 | 0.0 | 3.2 | 0.03 | 0.03 | 0.03 | 97 | |
| 20260503204617 | 14 | 347 | 0.0 | 0.0 | 0.03 | 0.03 | 0.03 | 97 | |
| 20260503203118 | 14 | 242 | 0.0 | 0.0 | 0.03 | 0.03 | 0.03 | 97 | |
| 20260503201617 | 14 | 242 | 0.0 | 3.2 | 0.03 | 0.03 | 0.03 | 97 | |
| 20260503200117 | 14 | 281 | 0.0 | 0.0 | 0.00 | 0.00 | 0.00 | 96 | |
| 20260503194617 | 13 | 281 | 0.0 | 0.0 | 0.00 | 0.00 | 0.00 | 96 | |
| 20260503193117 | 13 | 281 | 0.0 | 0.0 | 0.00 | 0.00 | 0.00 | 96 | |
| 20260503191618 | 13 | 281 | 0.0 | 0.0 | 0.00 | 0.00 | 0.00 | 96 | |
| 20260503190117 | 13 | 281 | 0.0 | 0.0 | 0.00 | 0.00 | 0.00 | 96 | |
| 20260503184618 | 13 | 281 | 0.0 | 0.0 | 0.00 | 0.00 | 0.00 | 96 | |
| 20260503183117 | 13 | 281 | 0.0 | 0.0 | 0.00 | 0.00 | 0.00 | 96 | |
| 20260503181607 | 13 | 281 | 0.0 | 6.4 | 0.00 | 0.00 | 0.00 | 96 | |
| 20260503180106 | 13 | 281 | 0.0 | 6.4 | 0.00 | 0.00 | 0.00 | 96 | |
| 20260503174608 | 13 | 289 | 0.0 | 0.0 | 0.00 | 0.00 | 0.00 | 96 | |
| 20260503173106 | 13 | 284 | 0.0 | 0.0 | 0.00 | 0.00 | 0.00 | 96 | |
| 20260503171606 | 13 | 284 | 0.0 | 0.0 | 0.00 | 0.00 | 0.00 | 96 | |
| 20260503081524 | 21 | 52 | 1.6 | 8.0 | 0.00 | 0.00 | 0.00 | 78 | |
| 20260503071519 | 22 | 90 | 4.8 | 11.3 | 0.00 | 0.00 | 0.00 | 69 | |
| 20260503054510 | 25 | 26 | 8.0 | 14.5 | 0.00 | 0.00 | 0.00 | 59 | |
| 20260503053009 | 25 | 54 | 8.0 | 17.7 | 0.00 | 0.00 | 0.00 | 55 | |
| 20260503051508 | 25 | 14 | 8.0 | 17.7 | 0.00 | 0.00 | 0.00 | 56 | |
| 20260503050008 | 25 | 54 | 9.7 | 17.7 | 0.00 | 0.00 | 0.00 | 56 | |
| 20260503044507 | 25 | 12 | 9.7 | 16.1 | 0.00 | 0.00 | 0.00 | 56 | |
| 20260503043004 | 25 | 332 | 6.4 | 17.7 | 0.00 | 0.00 | 0.00 | 55 | |
| 20260503041504 | 25 | 21 | 8.0 | 17.7 | 0.00 | 0.00 | 0.00 | 55 | |
| 20260503040004 | 25 | 29 | 8.0 | 16.1 | 0.00 | 0.00 | 0.00 | 55 | |
| 20260503034503 | 25 | 342 | 6.4 | 17.7 | 0.00 | 0.00 | 0.00 | 57 | |
| 20260503033004 | 25 | 33 | 6.4 | 14.5 | 0.00 | 0.00 | 0.00 | 57 | |
| 20260503031504 | 25 | 29 | 4.8 | 12.9 | 0.00 | 0.00 | 0.00 | 61 | |
| 20260503030004 | 24 | 43 | 4.8 | 11.3 | 0.00 | 0.00 | 0.00 | 62 | |
| 20260503024504 | 24 | 67 | 4.8 | 9.7 | 0.00 | 0.00 | 0.00 | 62 | |
| 20260503023003 | 23 | 296 | 4.8 | 12.9 | 0.00 | 0.00 | 0.00 | 64 | |
| 20260503021504 | 23 | 70 | 3.2 | 9.7 | 0.00 | 0.00 | 0.00 | 64 | |
| 20260503020006 | 23 | 358 | 3.2 | 9.7 | 0.00 | 0.00 | 0.00 | 66 | |
| 20260503014504 | 23 | 83 | 1.6 | 9.7 | 0.00 | 0.00 | 0.00 | 67 | |
| 20260503011504 | 22 | 295 | 3.2 | 9.7 | 0.00 | 0.00 | 0.00 | 70 | |
| 20260503010004 | 21 | 313 | 3.2 | 8.0 | 0.00 | 0.00 | 0.00 | 74 | |
| 20260503004506 | 21 | 353 | 3.2 | 8.0 | 0.00 | 0.00 | 0.00 | 76 | |
| 20260503003004 | 21 | 91 | 3.2 | 8.0 | 0.00 | 0.00 | 0.00 | 78 | |
| 20260503001504 | 20 | 39 | 1.6 | 6.4 | 0.00 | 0.00 | 0.00 | 82 | |
| 20260503000004 | 19 | 30 | 1.6 | 4.8 | 0.00 | 0.00 | 0.00 | 86 | |
| 20260502234503 | 18 | 320 | 0.0 | 4.8 | 0.00 | 0.00 | 0.00 | 93 | |
| 20260502233003 | 17 | 79 | 0.0 | 3.2 | 0.00 | 0.00 | 0.00 | 96 | |
| 20260502231504 | 17 | 288 | 0.0 | 3.2 | 0.00 | 0.00 | 0.00 | 96 | |
| 20260502230004 | 16 | 294 | 0.0 | 3.2 | 0.00 | 0.00 | 0.00 | 97 | |
| 20260502224459 | 16 | 346 | 0.0 | 3.2 | 0.00 | 0.00 | 0.00 | 97 | |
| 20260502222959 | 15 | 31 | 0.0 | 1.6 | 0.00 | 0.00 | 0.00 | 97 | |
| 20260502221459 | 15 | 325 | 0.0 | 0.0 | 0.00 | 0.00 | 0.00 | 98 | |
| 20260502215957 | 14 | 39 | 0.0 | 3.2 | 0.00 | 0.00 | 0.00 | 97 | |
| 20260502214455 | 13 | 39 | 1.6 | 3.2 | 0.00 | 0.00 | 0.00 | 97 | |
| 20260502212955 | 13 | 42 | 0.0 | 1.6 | 0.00 | 0.00 | 0.00 | 97 |